QPF
0.00 0.00 0.00 0.00 0.00 0.00 0.00 0.00 0.00 0.00 0.00 0.00 0.00 0.00 0.00 0.00 0.00 0.00 0.00 0.00 0.00 0.00 0.00 0.00 0.00 0.00 0.00 0.00 0.00 0.00 0.00 0.00 0.00 0.00 0.00 0.00 0.00 0.01 0.01 0.02 0.03 0.05 0.07 0.09 0.09 0.10 0.10 0.09 0.07 0.04 0.10 0.05 0.09 0.17 0.14 0.18 0.11 0.11 0.11 0.11 0.09 0.15 0.12 0.10 0.11 0.11 0.12 0.11 0.10 0.13 0.25 0.35 0.51 0.47
0.00 0.00 0.00 0.00 0.00 0.00 0.00 0.00 0.00 0.00 0.00 0.00 0.00 0.00 0.00 0.00 0.00 0.00 0.00 0.00 0.00 0.00 0.00 0.00 0.00 0.00 0.00 0.00 0.00 0.00 0.00 0.00 0.00 0.00 0.00 0.00 0.00 0.00 0.01 0.01 0.01 0.02 0.04 0.06 0.07 0.08 0.09 0.09 0.07 0.04 0.02 0.08 0.06 0.10 0.18 0.17 0.17 0.10 0.11 0.14 0.13 0.13 0.17 0.16 0.13 0.13 0.10 0.10 0.08 0.09 0.12 0.22 0.41 0.52
0.00 0.00 0.00 0.00 0.00 0.00 0.00 0.00 0.00 0.00 0.00 0.00 0.00 0.00 0.00 0.00 0.00 0.00 0.00 0.00 0.00 0.00 0.00 0.00 0.00 0.00 0.00 0.00 0.00 0.00 0.00 0.00 0.00 0.00 0.00 0.00 0.00 0.00 0.00 0.00 0.01 0.01 0.02 0.04 0.05 0.06 0.08 0.09 0.07 0.05 0.02 0.01 0.04 0.07 0.14 0.20 0.14 0.18 0.09 0.10 0.14 0.19 0.16 0.16 0.15 0.13 0.12 0.09 0.09 0.12 0.12 0.16 0.35 0.45
0.00 0.00 0.00 0.00 0.00 0.00 0.00 0.00 0.00 0.00 0.00 0.00 0.00 0.00 0.00 0.00 0.00 0.00 0.00 0.00 0.00 0.00 0.00 0.00 0.00 0.00 0.00 0.00 0.00 0.00 0.00 0.00 0.00 0.00 0.00 0.00 0.00 0.00 0.00 0.00 0.00 0.01 0.01 0.02 0.03 0.05 0.06 0.07 0.08 0.05 0.03 0.02 0.01 0.04 0.11 0.14 0.15 0.16 0.13 0.10 0.11 0.15 0.17 0.17 0.12 0.11 0.11 0.11 0.11 0.12 0.15 0.15 0.22 0.36
0.00 0.00 0.00 0.00 0.00 0.00 0.00 0.00 0.00 0.00 0.00 0.00 0.00 0.00 0.00 0.00 0.00 0.00 0.00 0.00 0.00 0.00 0.00 0.00 0.00 0.00 0.00 0.00 0.00 0.00 0.00 0.00 0.00 0.00 0.00 0.00 0.00 0.00 0.00 0.00 0.00 0.00 0.00 0.01 0.02 0.03 0.04 0.06 0.06 0.05 0.04 0.03 0.01 0.03 0.03 0.09 0.15 0.21 0.16 0.12 0.10 0.10 0.15 0.20 0.19 0.14 0.10 0.10 0.11 0.11 0.11 0.14 0.17 0.33
0.00 0.00 0.00 0.00 0.00 0.00 0.00 0.00 0.00 0.00 0.00 0.00 0.00 0.00 0.00 0.00 0.00 0.00 0.00 0.00 0.00 0.00 0.00 0.00 0.00 0.00 0.00 0.00 0.00 0.00 0.00 0.00 0.00 0.00 0.00 0.00 0.00 0.00 0.00 0.00 0.00 0.00 0.00 0.00 0.01 0.02 0.03 0.04 0.05 0.05 0.04 0.03 0.01 0.01 0.02 0.04 0.08 0.18 0.19 0.18 0.13 0.11 0.10 0.14 0.18 0.23 0.18 0.13 0.14 0.11 0.09 0.09 0.12 0.18
0.00 0.00 0.00 0.00 0.00 0.00 0.00 0.00 0.00 0.00 0.00 0.00 0.00 0.00 0.00 0.00 0.00 0.00 0.00 0.00 0.00 0.00 0.00 0.00 0.00 0.00 0.00 0.00 0.00 0.00 0.00 0.00 0.00 0.00 0.00 0.00 0.00 0.00 0.00 0.00 0.00 0.00 0.00 0.00 0.00 0.01 0.01 0.02 0.03 0.04 0.04 0.04 0.02 0.01 0.00 0.05 0.02 0.14 0.17 0.20 0.16 0.12 0.10 0.10 0.11 0.17 0.22 0.20 0.18 0.14 0.13 0.09 0.08 0.11
0.00 0.00 0.00 0.00 0.00 0.00 0.00 0.00 0.00 0.00 0.00 0.00 0.00 0.00 0.00 0.00 0.00 0.00 0.00 0.00 0.00 0.00 0.00 0.00 0.00 0.00 0.00 0.00 0.00 0.00 0.00 0.00 0.00 0.00 0.00 0.00 0.00 0.00 0.00 0.00 0.00 0.00 0.00 0.00 0.00 0.00 0.00 0.01 0.02 0.02 0.03 0.03 0.03 0.01 0.00 0.01 0.03 0.03 0.13 0.10 0.15 0.12 0.10 0.09 0.09 0.09 0.12 0.17 0.20 0.20 0.17 0.14 0.10 0.09
0.00 0.00 0.00 0.00 0.00 0.00 0.00 0.00 0.00 0.00 0.00 0.00 0.00 0.00 0.00 0.00 0.00 0.00 0.00 0.00 0.00 0.00 0.00 0.00 0.00 0.00 0.00 0.00 0.00 0.00 0.00 0.00 0.00 0.00 0.00 0.00 0.00 0.00 0.00 0.00 0.00 0.00 0.00 0.00 0.00 0.00 0.00 0.00 0.00 0.01 0.02 0.03 0.02 0.02 0.00 0.00 0.03 0.02 0.05 0.04 0.10 0.12 0.11 0.08 0.07 0.07 0.08 0.09 0.12 0.16 0.20 0.18 0.17 0.14
0.00 0.00 0.00 0.00 0.00 0.00 0.00 0.00 0.00 0.00 0.00 0.00 0.00 0.00 0.00 0.00 0.00 0.00 0.00 0.00 0.00 0.00 0.00 0.00 0.00 0.00 0.00 0.00 0.00 0.00 0.00 0.00 0.00 0.00 0.00 0.00 0.00 0.00 0.00 0.00 0.00 0.00 0.00 0.00 0.00 0.00 0.00 0.00 0.00 0.00 0.01 0.02 0.02 0.02 0.01 0.01 0.00 0.02 0.02 0.02 0.03 0.14 0.11 0.10 0.07 0.06 0.05 0.06 0.06 0.08 0.11 0.15 0.19 0.20
0.00 0.00 0.00 0.00 0.00 0.00 0.00 0.00 0.00 0.00 0.00 0.00 0.00 0.00 0.00 0.00 0.00 0.00 0.00 0.00 0.00 0.00 0.00 0.00 0.00 0.00 0.00 0.00 0.00 0.00 0.00 0.00 0.00 0.00 0.00 0.00 0.00 0.00 0.00 0.00 0.00 0.00 0.00 0.00 0.00 0.00 0.00 0.00 0.00 0.00 0.00 0.01 0.01 0.01 0.01 0.00 0.00 0.00 0.02 0.01 0.01 0.04 0.11 0.09 0.09 0.06 0.04 0.04 0.04 0.04 0.05 0.07 0.10 0.16
0.00 0.00 0.00 0.00 0.00 0.00 0.00 0.00 0.00 0.00 0.00 0.00 0.00 0.00 0.00 0.00 0.00 0.00 0.00 0.00 0.00 0.00 0.00 0.00 0.00 0.00 0.00 0.00 0.00 0.00 0.00 0.00 0.00 0.00 0.00 0.00 0.00 0.00 0.00 0.00 0.00 0.00 0.00 0.00 0.00 0.00 0.00 0.00 0.00 0.00 0.00 0.00 0.00 0.01 0.01 0.00 0.00 0.00 0.00 0.00 0.00 0.00 0.02 0.10 0.08 0.08 0.06 0.03 0.02 0.03 0.03 0.03 0.04 0.07
0.00 0.00 0.00 0.00 0.00 0.00 0.00 0.00 0.00 0.00 0.00 0.00 0.00 0.00 0.00 0.00 0.00 0.00 0.00 0.00 0.00 0.00 0.00 0.00 0.00 0.00 0.00 0.00 0.00 0.00 0.00 0.00 0.00 0.00 0.00 0.00 0.00 0.00 0.00 0.00 0.00 0.00 0.00 0.00 0.00 0.00 0.00 0.00 0.00 0.00 0.00 0.00 0.00 0.00 0.00 0.00 0.00 0.00 0.00 0.00 0.00 0.00 0.00 0.01 0.05 0.06 0.07 0.05 0.03 0.02 0.02 0.02 0.02 0.03
0.00 0.00 0.00 0.00 0.00 0.00 0.00 0.00 0.00 0.00 0.00 0.00 0.00 0.00 0.00 0.00 0.00 0.00 0.00 0.00 0.00 0.00 0.00 0.00 0.00 0.00 0.00 0.00 0.00 0.00 0.00 0.00 0.00 0.00 0.00 0.00 0.00 0.00 0.00 0.00 0.00 0.00 0.00 0.00 0.00 0.00 0.00 0.00 0.00 0.00 0.00 0.00 0.00 0.00 0.00 0.00 0.00 0.00 0.00 0.00 0.00 0.00 0.00 0.00 0.00 0.07 0.05 0.05 0.04 0.03 0.02 0.01 0.01 0.02
0.00 0.00 0.00 0.00 0.00 0.00 0.00 0.00 0.00 0.00 0.00 0.00 0.00 0.00 0.00 0.00 0.00 0.00 0.00 0.00 0.00 0.00 0.00 0.00 0.00 0.00 0.00 0.00 0.00 0.00 0.00 0.00 0.00 0.00 0.00 0.00 0.00 0.00 0.00 0.00 0.00 0.00 0.00 0.00 0.00 0.00 0.00 0.00 0.00 0.00 0.00 0.00 0.00 0.00 0.00 0.00 0.00 0.00 0.00 0.00 0.00 0.00 0.00 0.00 0.00 0.00 0.04 0.03 0.03 0.02 0.02 0.01 0.01 0.01
0.00 0.00 0.00 0.00 0.00 0.00 0.00 0.00 0.00 0.00 0.00 0.00 0.00 0.00 0.00 0.00 0.00 0.00 0.00 0.00 0.00 0.00 0.00 0.00 0.00 0.00 0.00 0.00 0.00 0.00 0.00 0.00 0.00 0.00 0.00 0.00 0.00 0.00 0.00 0.00 0.00 0.00 0.00 0.00 0.00 0.00 0.00 0.00 0.00 0.00 0.00 0.00 0.00 0.00 0.00 0.00 0.00 0.00 0.00 0.00 0.00 0.00 0.00 0.00 0.00 0.00 0.00 0.02 0.02 0.02 0.01 0.01 0.01 0.01
0.00 0.00 0.00 0.00 0.00 0.00 0.00 0.00 0.00 0.00 0.00 0.00 0.00 0.01 0.01 0.01 0.00 0.00 0.00 0.00 0.00 0.00 0.00 0.00 0.00 0.00 0.00 0.00 0.00 0.00 0.00 0.00 0.00 0.00 0.00 0.00 0.00 0.00 0.00 0.00 0.00 0.00 0.00 0.00 0.00 0.00 0.00 0.00 0.00 0.00 0.00 0.00 0.00 0.00 0.00 0.00 0.00 0.00 0.00 0.00 0.00 0.00 0.00 0.00 0.00 0.00 0.00 0.00 0.02 0.01 0.01 0.01 0.01 0.01
0.00 0.00 0.00 0.00 0.00 0.00 0.00 0.00 0.00 0.00 0.00 0.00 0.01 0.01 0.01 0.01 0.01 0.01 0.01 0.01 0.00 0.00 0.00 0.00 0.00 0.00 0.00 0.00 0.00 0.00 0.00 0.00 0.00 0.00 0.00 0.00 0.00 0.00 0.00 0.00 0.00 0.00 0.00 0.00 0.00 0.00 0.00 0.00 0.00 0.00 0.00 0.00 0.00 0.00 0.00 0.00 0.00 0.00 0.00 0.00 0.00 0.00 0.00 0.00 0.00 0.00 0.00 0.00 0.00 0.01 0.01 0.00 0.00 0.00
0.00 0.00 0.00 0.00 0.00 0.00 0.00 0.00 0.00 0.00 0.00 0.00 0.00 0.00 0.01 0.01 0.01 0.01 0.01 0.01 0.01 0.01 0.01 0.00 0.00 0.00 0.00 0.00 0.00 0.00 0.00 0.00 0.00 0.00 0.00 0.00 0.00 0.00 0.00 0.00 0.00 0.00 0.00 0.00 0.00 0.00 0.00 0.00 0.00 0.00 0.00 0.00 0.00 0.00 0.00 0.00 0.00 0.00 0.00 0.00 0.00 0.00 0.00 0.00 0.00 0.00 0.00 0.00 0.00 0.00 0.00 0.00 0.00 0.00
0.00 0.00 0.00 0.00 0.00 0.00 0.00 0.00 0.00 0.00 0.00 0.00 0.00 0.00 0.00 0.00 0.00 0.00 0.00 0.00 0.00 0.00 0.00 0.00 0.00 0.00 0.00 0.00 0.00 0.00 0.00 0.00 0.00 0.00 0.00 0.00 0.00 0.00 0.00 0.00 0.00 0.00 0.00 0.00 0.00 0.00 0.00 0.00 0.00 0.00 0.00 0.00 0.00 0.00 0.00 0.00 0.00 0.00 0.00 0.00 0.00 0.00 0.00 0.00 0.00 0.00 0.00 0.00 0.00 0.00 0.00 0.00 0.00 0.00
0.00 0.00 0.00 0.00 0.00 0.00 0.00 0.00 0.00 0.00 0.00 0.00 0.00 0.00 0.00 0.00 0.00 0.00 0.00 0.00 0.00 0.00 0.00 0.00 0.00 0.00 0.00 0.00 0.00 0.00 0.00 0.00 0.00 0.00 0.00 0.00 0.00 0.00 0.00 0.00 0.00 0.00 0.00 0.00 0.00 0.00 0.00 0.00 0.00 0.00 0.00 0.00 0.00 0.00 0.00 0.00 0.00 0.00 0.00 0.00 0.00 0.00 0.00 0.00 0.00 0.00 0.00 0.00 0.00 0.00 0.00 0.00 0.00 0.00
0.00 0.00 0.00 0.00 0.00 0.00 0.00 0.00 0.00 0.00 0.01 0.00 0.00 0.00 0.00 0.00 0.00 0.00 0.00 0.00 0.00 0.00 0.01 0.01 0.01 0.01 0.01 0.03 0.03 0.01 0.01 0.01 0.02 0.02 0.01 0.00 0.00 0.00 0.00 0.00 0.00 0.00 0.00 0.00 0.00 0.01 0.01 0.00 0.00 0.00 0.00 0.00 0.00 0.00 0.00 0.00 0.00 0.00 0.00 0.00 0.00 0.00 0.00 0.00 0.00 0.00 0.00 0.00 0.00 0.00 0.00 0.00 0.00 0.00
0.01 0.01 0.00 0.00 0.00 0.00 0.00 0.00 0.00 0.00 0.02 0.01 0.00 0.00 0.00 0.00 0.00 0.00 0.00 0.00 0.00 0.00 0.00 0.00 0.01 0.02 0.02 0.03 0.04 0.04 0.02 0.01 0.02 0.02 0.01 0.00 0.00 0.00 0.00 0.00 0.00 0.00 0.00 0.00 0.00 0.01 0.00 0.00 0.00 0.01 0.00 0.00 0.00 0.00 0.00 0.00 0.00 0.00 0.00 0.00 0.00 0.00 0.00 0.00 0.00 0.00 0.00 0.00 0.00 0.00 0.00 0.00 0.00 0.00
0.01 0.01 0.01 0.00 0.00 0.00 0.00 0.00 0.01 0.01 0.04 0.01 0.00 0.00 0.00 0.00 0.00 0.00 0.00 0.00 0.00 0.00 0.00 0.00 0.00 0.00 0.00 0.00 0.00 0.00 0.00 0.00 0.01 0.03 0.02 0.00 0.00 0.00 0.00 0.00 0.00 0.00 0.00 0.00 0.00 0.01 0.00 0.03 0.03 0.07 0.05 0.04 0.03 0.00 0.00 0.00 0.00 0.00 0.00 0.00 0.00 0.00 0.00 0.00 0.00 0.00 0.00 0.00 0.00 0.00 0.00 0.00 0.00 0.00
0.01 0.01 0.01 0.00 0.00 0.00 0.00 0.00 0.01 0.02 0.03 0.04 0.00 0.00 0.00 0.00 0.00 0.00 0.00 0.00 0.00 0.00 0.00 0.00 0.00 0.00 0.00 0.00 0.00 0.00 0.00 0.00 0.00 0.00 0.01 0.01 0.00 0.00 0.00 0.00 0.00 0.00 0.00 0.00 0.00 0.00 0.00 0.01 0.01 0.02 0.03 0.08 0.04 0.07 0.08 0.04 0.01 0.00 0.00 0.00 0.00 0.00 0.00 0.00 0.00 0.00 0.00 0.00 0.00 0.00 0.00 0.00 0.00 0.00
0.01 0.01 0.01 0.00 0.00 0.00 0.00 0.01 0.02 0.03 0.02 0.05 0.01 0.00 0.00 0.00 0.00 0.00 0.00 0.00 0.00 0.01 0.01 0.01 0.01 0.01 0.00 0.00 0.00 0.00 0.00 0.00 0.00 0.00 0.00 0.00 0.00 0.00 0.00 0.00 0.00 0.00 0.00 0.00 0.00 0.00 0.00 0.01 0.01 0.04 0.03 0.09 0.03 0.03 0.02 0.05 0.01 0.01 0.01 0.00 0.00 0.00 0.00 0.00 0.00 0.00 0.00 0.00 0.00 0.00 0.00 0.00 0.00 0.00
0.01 0.01 0.01 0.00 0.00 0.00 0.00 0.01 0.03 0.03 0.03 0.03 0.02 0.01 0.01 0.00 0.00 0.00 0.01 0.01 0.01 0.01 0.00 0.00 0.00 0.00 0.00 0.00 0.00 0.00 0.00 0.00 0.00 0.00 0.00 0.00 0.00 0.00 0.00 0.00 0.00 0.00 0.00 0.00 0.00 0.00 0.00 0.00 0.01 0.02 0.02 0.05 0.07 0.03 0.02 0.05 0.06 0.08 0.01 0.00 0.00 0.00 0.00 0.00 0.00 0.00 0.00 0.00 0.00 0.00 0.00 0.00 0.00 0.00
0.01 0.01 0.01 0.01 0.00 0.00 0.00 0.01 0.03 0.03 0.02 0.02 0.04 0.02 0.01 0.00 0.02 0.03 0.03 0.03 0.02 0.02 0.02 0.01 0.00 0.00 0.00 0.00 0.00 0.00 0.00 0.00 0.00 0.00 0.00 0.00 0.00 0.00 0.00 0.00 0.00 0.00 0.00 0.00 0.00 0.00 0.00 0.00 0.00 0.01 0.02 0.05 0.06 0.04 0.03 0.05 0.05 0.09 0.04 0.01 0.01 0.00 0.00 0.00 0.00 0.00 0.00 0.00 0.00 0.00 0.00 0.00 0.00 0.00
0.01 0.01 0.01 0.01 0.01 0.01 0.01 0.01 0.02 0.02 0.04 0.05 0.03 0.01 0.01 0.04 0.02 0.02 0.02 0.01 0.01 0.00 0.00 0.01 0.01 0.00 0.00 0.00 0.00 0.00 0.00 0.00 0.00 0.00 0.00 0.00 0.00 0.00 0.00 0.00 0.00 0.00 0.00 0.00 0.00 0.00 0.00 0.00 0.00 0.01 0.01 0.01 0.02 0.01 0.05 0.02 0.10 0.04 0.01 0.09 0.06 0.00 0.00 0.00 0.00 0.00 0.00 0.00 0.00 0.00 0.00 0.00 0.00 0.00
0.01 0.01 0.02 0.02 0.01 0.02 0.02 0.03 0.02 0.02 0.02 0.03 0.04 0.02 0.02 0.01 0.01 0.01 0.00 0.00 0.00 0.00 0.00 0.00 0.00 0.01 0.00 0.00 0.00 0.00 0.00 0.00 0.00 0.00 0.00 0.00 0.00 0.00 0.00 0.00 0.00 0.00 0.00 0.00 0.00 0.00 0.00 0.00 0.00 0.00 0.00 0.00 0.00 0.00 0.02 0.04 0.05 0.07 0.14 0.03 0.01 0.04 0.03 0.01 0.00 0.00 0.01 0.00 0.00 0.00 0.00 0.00 0.00 0.00
0.02 0.02 0.02 0.02 0.03 0.04 0.03 0.04 0.03 0.03 0.03 0.02 0.03 0.02 0.02 0.00 0.00 0.00 0.00 0.00 0.00 0.00 0.00 0.00 0.00 0.00 0.01 0.01 0.01 0.00 0.00 0.00 0.00 0.00 0.00 0.00 0.00 0.00 0.00 0.00 0.00 0.00 0.00 0.00 0.00 0.00 0.00 0.00 0.00 0.00 0.00 0.00 0.00 0.00 0.00 0.02 0.01 0.04 0.05 0.02 0.03 0.03 0.02 0.01 0.01 0.01 0.01 0.01 0.00 0.00 0.00 0.00 0.00 0.00
0.05 0.03 0.02 0.02 0.02 0.04 0.04 0.03 0.04 0.04 0.03 0.02 0.02 0.04 0.02 0.00 0.00 0.00 0.00 0.00 0.00 0.00 0.00 0.00 0.00 0.00 0.00 0.01 0.02 0.02 0.01 0.01 0.01 0.00 0.00 0.00 0.00 0.00 0.01 0.01 0.00 0.00 0.00 0.00 0.00 0.00 0.00 0.00 0.00 0.00 0.00 0.00 0.00 0.00 0.00 0.00 0.00 0.00 0.00 0.02 0.01 0.02 0.10 0.09 0.03 0.02 0.01 0.00 0.01 0.01 0.00 0.00 0.00 0.00
0.03 0.05 0.04 0.02 0.02 0.02 0.04 0.04 0.05 0.06 0.05 0.03 0.01 0.01 0.01 0.00 0.00 0.00 0.00 0.00 0.00 0.00 0.00 0.00 0.00 0.00 0.00 0.00 0.00 0.00 0.01 0.02 0.04 0.03 0.02 0.01 0.00 0.01 0.01 0.01 0.00 0.00 0.00 0.00 0.00 0.00 0.00 0.00 0.00 0.00 0.00 0.00 0.00 0.00 0.00 0.00 0.00 0.00 0.00 0.00 0.01 0.02 0.02 0.02 0.03 0.02 0.01 0.01 0.01 0.00 0.01 0.01 0.00 0.00
0.03 0.03 0.05 0.04 0.02 0.02 0.02 0.03 0.04 0.04 0.03 0.03 0.02 0.01 0.01 0.00 0.00 0.00 0.00 0.00 0.00 0.00 0.00 0.00 0.00 0.00 0.00 0.00 0.00 0.00 0.00 0.00 0.00 0.01 0.04 0.05 0.05 0.02 0.03 0.04 0.02 0.00 0.00 0.00 0.00 0.00 0.00 0.00 0.00 0.00 0.00 0.00 0.00 0.00 0.00 0.00 0.00 0.00 0.00 0.00 0.01 0.02 0.01 0.01 0.01 0.00 0.00 0.01 0.01 0.01 0.00 0.00 0.00 0.00
0.04 0.04 0.04 0.05 0.04 0.02 0.01 0.02 0.02 0.02 0.02 0.02 0.01 0.01 0.00 0.00 0.00 0.00 0.00 0.00 0.00 0.00 0.00 0.00 0.00 0.00 0.00 0.00 0.00 0.00 0.00 0.00 0.00 0.00 0.00 0.00 0.01 0.05 0.03 0.03 0.01 0.01 0.01 0.00 0.00 0.00 0.00 0.00 0.00 0.00 0.00 0.00 0.00 0.00 0.00 0.00 0.00 0.00 0.00 0.00 0.00 0.00 0.03 0.05 0.00 0.00 0.00 0.00 0.01 0.01 0.00 0.00 0.00 0.00
0.04 0.04 0.04 0.03 0.04 0.03 0.02 0.02 0.02 0.02 0.01 0.01 0.01 0.00 0.00 0.00 0.00 0.00 0.00 0.00 0.00 0.00 0.00 0.00 0.00 0.00 0.00 0.00 0.00 0.00 0.00 0.00 0.00 0.00 0.00 0.00 0.00 0.00 0.01 0.01 0.01 0.01 0.00 0.00 0.00 0.00 0.00 0.01 0.00 0.00 0.00 0.00 0.00 0.00 0.00 0.00 0.00 0.00 0.00 0.00 0.00 0.00 0.00 0.02 0.01 0.00 0.00 0.01 0.00 0.00 0.00 0.00 0.00 0.00
0.03 0.03 0.03 0.02 0.02 0.04 0.02 0.01 0.02 0.02 0.01 0.01 0.01 0.00 0.00 0.00 0.00 0.00 0.00 0.00 0.00 0.00 0.00 0.00 0.00 0.00 0.00 0.00 0.00 0.00 0.00 0.00 0.00 0.00 0.00 0.00 0.01 0.01 0.01 0.01 0.01 0.01 0.02 0.01 0.00 0.00 0.01 0.01 0.01 0.00 0.00 0.00 0.00 0.00 0.00 0.00 0.00 0.00 0.00 0.00 0.00 0.00 0.00 0.00 0.00 0.00 0.00 0.00 0.00 0.00 0.00 0.00 0.00 0.00
0.02 0.02 0.02 0.02 0.01 0.02 0.03 0.02 0.01 0.01 0.01 0.01 0.01 0.00 0.00 0.00 0.00 0.00 0.00 0.00 0.00 0.00 0.00 0.00 0.00 0.00 0.00 0.00 0.00 0.00 0.00 0.00 0.00 0.00 0.00 0.00 0.00 0.00 0.01 0.01 0.01 0.01 0.01 0.02 0.02 0.01 0.02 0.02 0.01 0.00 0.00 0.00 0.00 0.00 0.00 0.00 0.00 0.00 0.00 0.00 0.00 0.00 0.01 0.00 0.00 0.00 0.00 0.00 0.00 0.00 0.00 0.00 0.00 0.00
0.01 0.01 0.01 0.02 0.02 0.01 0.02 0.03 0.02 0.01 0.01 0.01 0.01 0.00 0.00 0.00 0.00 0.00 0.00 0.00 0.00 0.00 0.00 0.00 0.00 0.00 0.00 0.00 0.00 0.00 0.00 0.00 0.00 0.00 0.00 0.00 0.00 0.01 0.00 0.00 0.00 0.00 0.01 0.01 0.02 0.04 0.03 0.03 0.02 0.01 0.01 0.01 0.00 0.00 0.00 0.00 0.00 0.00 0.00 0.00 0.00 0.00 0.00 0.01 0.00 0.00 0.00 0.00 0.00 0.00 0.00 0.00 0.00 0.00
0.01 0.01 0.01 0.01 0.02 0.02 0.02 0.02 0.02 0.02 0.01 0.01 0.01 0.00 0.00 0.00 0.00 0.00 0.00 0.00 0.00 0.00 0.00 0.00 0.00 0.00 0.00 0.00 0.00 0.00 0.00 0.00 0.00 0.00 0.00 0.00 0.00 0.00 0.00 0.00 0.01 0.01 0.01 0.01 0.01 0.02 0.02 0.03 0.02 0.01 0.00 0.00 0.00 0.00 0.00 0.00 0.00 0.00 0.00 0.00 0.00 0.00 0.00 0.00 0.00 0.00 0.00 0.00 0.00 0.01 0.00 0.00 0.00 0.00
0.01 0.01 0.01 0.02 0.02 0.03 0.02 0.02 0.02 0.02 0.01 0.01 0.01 0.01 0.01 0.00 0.00 0.00 0.00 0.00 0.00 0.00 0.00 0.00 0.00 0.00 0.00 0.00 0.00 0.00 0.00 0.00 0.00 0.00 0.00 0.00 0.00 0.00 0.00 0.00 0.00 0.00 0.00 0.00 0.00 0.00 0.00 0.00 0.00 0.00 0.00 0.00 0.00 0.01 0.03 0.02 0.00 0.00 0.00 0.00 0.00 0.00 0.00 0.00 0.00 0.00 0.00 0.00 0.00 0.01 0.01 0.00 0.00 0.00
0.01 0.01 0.02 0.02 0.03 0.03 0.03 0.02 0.01 0.02 0.01 0.01 0.01 0.01 0.01 0.01 0.00 0.00 0.00 0.00 0.00 0.00 0.00 0.00 0.00 0.00 0.00 0.00 0.00 0.00 0.00 0.00 0.00 0.00 0.00 0.00 0.00 0.00 0.00 0.01 0.01 0.01 0.00 0.00 0.00 0.00 0.00 0.00 0.00 0.01 0.01 0.00 0.01 0.04 0.05 0.03 0.01 0.00 0.00 0.00 0.00 0.00 0.00 0.00 0.00 0.00 0.00 0.00 0.00 0.00 0.01 0.00 0.00 0.00
0.03 0.02 0.02 0.03 0.03 0.02 0.02 0.01 0.01 0.01 0.01 0.01 0.01 0.01 0.01 0.01 0.00 0.00 0.00 0.00 0.00 0.00 0.00 0.00 0.00 0.00 0.00 0.00 0.00 0.00 0.00 0.00 0.00 0.00 0.00 0.00 0.00 0.00 0.00 0.00 0.00 0.00 0.00 0.00 0.00 0.00 0.00 0.01 0.01 0.08 0.03 0.02 0.01 0.02 0.02 0.01 0.01 0.00 0.00 0.00 0.00 0.00 0.00 0.00 0.00 0.00 0.00 0.00 0.00 0.00 0.00 0.00 0.00 0.00
0.04 0.03 0.03 0.03 0.02 0.02 0.02 0.01 0.01 0.01 0.01 0.01 0.01 0.01 0.01 0.01 0.00 0.00 0.00 0.00 0.00 0.00 0.00 0.00 0.00 0.00 0.00 0.00 0.00 0.00 0.00 0.00 0.00 0.00 0.00 0.00 0.00 0.00 0.00 0.00 0.01 0.00 0.00 0.00 0.00 0.02 0.00 0.00 0.00 0.02 0.03 0.03 0.01 0.01 0.01 0.01 0.04 0.01 0.00 0.00 0.00 0.00 0.00 0.00 0.00 0.00 0.00 0.00 0.00 0.00 0.00 0.00 0.00 0.00
0.05 0.04 0.04 0.04 0.03 0.02 0.02 0.02 0.02 0.02 0.01 0.01 0.01 0.01 0.01 0.01 0.01 0.00 0.00 0.00 0.01 0.00 0.00 0.00 0.00 0.00 0.00 0.00 0.00 0.00 0.00 0.00 0.00 0.00 0.00 0.00 0.00 0.00 0.00 0.00 0.00 0.01 0.01 0.01 0.01 0.00 0.00 0.01 0.01 0.03 0.03 0.02 0.01 0.01 0.00 0.00 0.02 0.02 0.01 0.00 0.00 0.00 0.01 0.01 0.01 0.00 0.01 0.01 0.01 0.01 0.01 0.00 0.00 0.00
MSLP
1019.81 1019.81 1019.85 1019.93 1020.09 1020.17 1020.21 1020.17 1020.25 1020.29 1020.33 1020.41 1020.45 1020.53 1020.81 1021.13 1021.53 1021.69 1021.45 1021.01 1020.69 1020.01 1019.81 1019.61 1019.01 1019.05 1019.01 1018.93 1018.93 1018.97 1018.97 1018.85 1018.65 1018.57 1018.49 1018.41 1018.25 1018.05 1017.85 1017.61 1017.41 1017.05 1016.49 1016.01 1015.81 1015.61 1015.21 1014.65 1014.05 1013.61 1013.21 1012.85 1012.53 1012.41 1012.25 1011.97 1011.33 1010.65 1010.21 1009.81 1009.25 1008.77 1008.65 1008.21 1007.93 1007.69 1007.45 1007.61 1007.57 1007.53 1007.93 1008.17 1008.37 1008.81
1019.69 1019.65 1019.69 1019.73 1019.81 1019.93 1020.05 1020.09 1020.13 1020.21 1020.25 1020.33 1020.41 1020.49 1020.57 1020.73 1021.09 1021.29 1021.37 1020.69 1020.37 1020.09 1019.77 1019.61 1019.33 1019.09 1019.17 1019.13 1019.01 1018.89 1018.85 1018.69 1018.53 1018.49 1018.49 1018.37 1018.17 1017.85 1017.65 1017.53 1017.37 1017.05 1016.65 1016.37 1016.13 1015.85 1015.45 1014.93 1014.37 1013.89 1013.49 1013.25 1012.97 1012.73 1012.53 1012.41 1012.09 1011.37 1010.77 1010.37 1009.93 1009.33 1009.13 1008.89 1008.57 1008.33 1008.05 1007.97 1008.17 1008.17 1008.33 1008.61 1008.97 1009.29
1019.65 1019.61 1019.57 1019.57 1019.61 1019.69 1019.85 1019.93 1019.97 1020.05 1020.13 1020.17 1020.25 1020.29 1020.37 1020.41 1020.53 1020.77 1020.97 1020.93 1019.81 1020.01 1019.97 1019.65 1019.57 1019.57 1019.33 1019.13 1019.01 1018.85 1018.81 1018.73 1018.57 1018.45 1018.41 1018.29 1018.01 1017.77 1017.65 1017.57 1017.33 1017.05 1016.77 1016.49 1016.21 1015.89 1015.49 1014.97 1014.53 1014.17 1013.89 1013.53 1013.21 1013.09 1013.05 1012.89 1012.57 1012.09 1011.33 1010.97 1010.49 1010.05 1009.73 1009.53 1009.25 1008.93 1008.65 1008.49 1008.61 1008.77 1009.01 1009.17 1009.37 1009.49
1019.41 1019.41 1019.41 1019.41 1019.45 1019.53 1019.61 1019.73 1019.81 1019.81 1019.85 1019.93 1020.01 1020.09 1020.13 1020.21 1020.29 1020.49 1020.69 1020.69 1020.29 1020.01 1020.01 1019.93 1019.77 1019.65 1019.45 1019.21 1019.01 1018.81 1018.65 1018.61 1018.57 1018.45 1018.33 1018.13 1017.89 1017.77 1017.69 1017.53 1017.29 1016.97 1016.69 1016.45 1016.21 1015.85 1015.37 1014.93 1014.61 1014.33 1014.05 1013.81 1013.53 1013.37 1013.33 1013.17 1012.85 1012.33 1011.97 1011.65 1011.33 1010.85 1010.29 1009.93 1009.73 1009.37 1009.01 1008.97 1009.17 1009.33 1009.49 1009.57 1009.77 1010.01
1019.29 1019.33 1019.29 1019.29 1019.29 1019.37 1019.45 1019.57 1019.69 1019.69 1019.69 1019.77 1019.81 1019.89 1019.97 1020.09 1020.17 1020.29 1020.49 1020.61 1020.33 1020.05 1019.93 1019.97 1019.93 1019.77 1019.61 1019.29 1019.05 1018.81 1018.57 1018.45 1018.41 1018.29 1018.17 1018.01 1017.85 1017.69 1017.53 1017.33 1017.13 1016.89 1016.61 1016.33 1016.09 1015.69 1015.21 1014.85 1014.65 1014.37 1014.05 1013.89 1013.73 1013.53 1013.45 1013.25 1012.85 1012.61 1012.49 1012.37 1012.05 1011.53 1011.01 1010.49 1010.09 1009.77 1009.45 1009.41 1009.61 1009.81 1010.01 1009.93 1010.13 1010.53
1019.17 1019.25 1019.29 1019.25 1019.25 1019.21 1019.29 1019.45 1019.57 1019.69 1019.69 1019.65 1019.69 1019.69 1019.69 1019.89 1020.09 1020.09 1020.37 1020.41 1020.45 1020.25 1020.05 1020.01 1019.81 1019.77 1019.57 1019.41 1019.09 1018.97 1018.69 1018.41 1018.21 1018.13 1018.01 1017.85 1017.77 1017.65 1017.41 1017.17 1016.93 1016.73 1016.45 1016.21 1015.85 1015.41 1014.97 1014.69 1014.53 1014.33 1014.13 1013.97 1013.81 1013.65 1013.53 1013.37 1013.05 1013.01 1013.05 1012.93 1012.69 1012.41 1011.85 1011.21 1010.77 1010.37 1010.17 1010.01 1010.05 1010.21 1010.41 1010.45 1010.53 1010.93
1019.09 1019.17 1019.17 1019.17 1019.21 1019.25 1019.33 1019.37 1019.49 1019.69 1019.81 1019.89 1019.93 1019.81 1019.61 1019.69 1019.89 1020.01 1020.09 1020.25 1020.37 1020.29 1020.09 1019.93 1019.89 1019.81 1019.65 1019.57 1019.25 1019.01 1018.77 1018.53 1018.33 1018.13 1017.97 1017.81 1017.61 1017.45 1017.25 1016.97 1016.77 1016.61 1016.41 1016.13 1015.81 1015.37 1014.93 1014.65 1014.45 1014.33 1014.21 1014.13 1013.89 1013.69 1013.69 1013.77 1013.53 1013.41 1013.45 1013.41 1013.29 1013.09 1012.65 1012.01 1011.49 1011.01 1010.89 1010.65 1010.45 1010.61 1010.81 1010.97 1011.09 1011.25
1018.89 1019.01 1019.09 1019.09 1019.17 1019.21 1019.25 1019.25 1019.37 1019.53 1019.73 1019.89 1019.89 1019.89 1019.73 1019.53 1019.61 1019.77 1019.85 1019.93 1020.09 1020.05 1020.13 1019.85 1019.97 1019.73 1019.73 1019.49 1019.29 1019.13 1018.85 1018.69 1018.45 1018.29 1018.01 1017.81 1017.65 1017.41 1017.09 1016.85 1016.57 1016.37 1016.17 1015.93 1015.65 1015.37 1015.01 1014.73 1014.45 1014.33 1014.25 1014.21 1014.13 1013.97 1013.97 1014.13 1013.93 1013.69 1013.73 1013.77 1013.77 1013.57 1013.17 1012.69 1012.21 1011.85 1011.65 1011.41 1011.21 1011.09 1011.33 1011.53 1011.61 1011.69
1018.57 1018.73 1018.85 1018.93 1019.05 1019.13 1019.17 1019.09 1019.13 1019.29 1019.53 1019.65 1019.81 1019.81 1019.73 1019.61 1019.57 1019.65 1019.81 1019.85 1019.93 1019.97 1020.05 1019.93 1019.81 1019.81 1019.73 1019.57 1019.45 1019.33 1019.17 1018.81 1018.57 1018.33 1018.13 1017.85 1017.53 1017.21 1016.89 1016.61 1016.33 1016.01 1015.73 1015.53 1015.33 1015.17 1015.01 1014.81 1014.65 1014.45 1014.33 1014.25 1014.25 1014.29 1014.25 1014.37 1014.21 1014.05 1013.97 1013.97 1014.05 1013.93 1013.65 1013.17 1012.77 1012.53 1012.37 1012.17 1011.93 1011.77 1011.85 1012.17 1012.33 1012.37
1018.25 1018.41 1018.53 1018.69 1018.77 1018.85 1018.89 1018.81 1018.81 1018.97 1019.17 1019.41 1019.57 1019.61 1019.65 1019.61 1019.61 1019.65 1019.73 1019.81 1019.85 1019.89 1019.93 1019.97 1019.97 1019.85 1019.89 1019.77 1019.57 1019.33 1019.17 1018.97 1018.69 1018.29 1017.97 1017.73 1017.49 1017.17 1016.81 1016.53 1016.13 1015.77 1015.49 1015.25 1014.97 1014.77 1014.69 1014.69 1014.65 1014.65 1014.57 1014.53 1014.49 1014.45 1014.49 1014.49 1014.45 1014.37 1014.45 1014.33 1014.13 1014.13 1014.05 1013.69 1013.29 1013.05 1012.85 1012.77 1012.65 1012.45 1012.37 1012.69 1012.93 1012.97
1017.97 1018.05 1018.17 1018.29 1018.37 1018.49 1018.53 1018.65 1018.61 1018.61 1018.85 1019.05 1019.21 1019.33 1019.41 1019.53 1019.61 1019.69 1019.81 1019.85 1019.89 1019.89 1019.93 1019.89 1019.85 1019.89 1019.77 1019.73 1019.65 1019.33 1019.13 1018.89 1018.69 1018.49 1018.09 1017.73 1017.33 1017.01 1016.73 1016.37 1015.93 1015.61 1015.33 1015.01 1014.77 1014.57 1014.41 1014.33 1014.37 1014.41 1014.45 1014.49 1014.57 1014.61 1014.61 1014.61 1014.57 1014.57 1014.61 1014.61 1014.49 1014.21 1014.13 1014.05 1013.77 1013.53 1013.33 1013.09 1013.01 1012.97 1012.97 1013.09 1013.21 1013.29
1017.69 1017.69 1017.77 1017.89 1017.93 1018.05 1018.17 1018.33 1018.41 1018.41 1018.53 1018.69 1018.93 1019.05 1019.21 1019.33 1019.49 1019.65 1019.77 1019.85 1019.89 1019.93 1019.97 1019.93 1019.93 1019.85 1019.81 1019.65 1019.41 1019.21 1019.05 1018.93 1018.73 1018.57 1018.45 1018.09 1017.45 1016.97 1016.57 1016.33 1016.09 1015.65 1015.41 1015.13 1014.85 1014.61 1014.41 1014.25 1014.17 1014.13 1014.17 1014.25 1014.33 1014.41 1014.41 1014.45 1014.53 1014.53 1014.53 1014.53 1014.41 1014.33 1014.13 1013.97 1013.97 1013.77 1013.61 1013.49 1013.33 1013.33 1013.37 1013.45 1013.57 1013.61
1017.41 1017.37 1017.41 1017.53 1017.61 1017.65 1017.77 1017.89 1018.01 1018.13 1018.17 1018.41 1018.61 1018.73 1018.89 1019.05 1019.25 1019.49 1019.69 1019.85 1019.89 1019.93 1019.93 1019.85 1019.81 1019.81 1019.77 1019.61 1019.49 1019.37 1019.21 1019.09 1019.01 1018.69 1018.61 1018.37 1017.77 1017.25 1016.85 1016.49 1016.17 1015.89 1015.61 1015.29 1015.05 1014.85 1014.61 1014.33 1014.17 1014.01 1013.97 1013.93 1013.93 1014.01 1014.05 1014.05 1014.13 1014.17 1014.13 1014.05 1013.97 1013.89 1013.89 1013.81 1013.81 1013.81 1013.73 1013.65 1013.65 1013.65 1013.73 1013.81 1013.89 1013.97
1017.13 1017.09 1017.09 1017.17 1017.29 1017.37 1017.41 1017.45 1017.57 1017.65 1017.73 1017.85 1018.09 1018.33 1018.53 1018.69 1018.97 1019.21 1019.45 1019.65 1019.73 1019.77 1019.73 1019.69 1019.73 1019.73 1019.65 1019.53 1019.33 1019.25 1019.09 1018.97 1018.89 1018.89 1018.77 1018.65 1018.13 1017.77 1017.57 1016.93 1016.49 1016.13 1016.01 1015.65 1015.33 1014.89 1014.61 1014.45 1014.13 1013.97 1013.85 1013.61 1013.57 1013.57 1013.65 1013.73 1013.73 1013.73 1013.65 1013.61 1013.53 1013.49 1013.49 1013.57 1013.61 1013.73 1013.81 1013.77 1013.77 1013.85 1013.93 1014.05 1014.17 1014.25
1016.89 1016.81 1016.77 1016.85 1016.93 1017.05 1017.09 1017.09 1017.13 1017.25 1017.29 1017.37 1017.49 1017.73 1017.97 1018.21 1018.45 1018.81 1019.05 1019.25 1019.37 1019.45 1019.45 1019.41 1019.41 1019.41 1019.37 1019.25 1019.05 1018.97 1018.93 1018.89 1018.93 1018.97 1018.85 1018.73 1018.57 1018.73 1018.37 1018.13 1016.61 1016.29 1016.29 1016.21 1015.85 1015.37 1014.89 1014.69 1014.53 1014.09 1013.89 1013.61 1013.41 1013.29 1013.29 1013.25 1013.21 1013.17 1013.17 1013.21 1013.25 1013.21 1013.17 1013.21 1013.33 1013.45 1013.65 1013.77 1013.81 1013.89 1014.05 1014.21 1014.33 1014.45
1016.65 1016.61 1016.53 1016.45 1016.53 1016.53 1016.61 1016.73 1016.85 1016.93 1016.93 1016.97 1017.05 1017.21 1017.37 1017.53 1017.77 1018.01 1018.37 1018.73 1018.97 1019.05 1019.09 1019.05 1019.01 1019.13 1019.13 1019.09 1018.93 1018.93 1018.97 1018.93 1018.93 1018.81 1018.77 1018.77 1018.81 1018.73 1018.69 1018.25 1017.93 1016.81 1016.65 1016.73 1016.49 1015.93 1015.13 1015.05 1014.77 1014.37 1013.93 1013.61 1013.45 1013.25 1013.05 1012.97 1012.97 1012.97 1012.89 1012.89 1012.93 1012.97 1013.01 1013.05 1013.13 1013.29 1013.45 1013.65 1013.81 1013.89 1014.09 1014.25 1014.41 1014.57
1016.21 1016.25 1016.25 1016.25 1016.21 1016.21 1016.21 1016.41 1016.57 1016.73 1016.73 1016.65 1016.65 1016.77 1016.89 1017.01 1017.13 1017.33 1017.61 1017.89 1018.21 1018.45 1018.65 1018.77 1018.77 1018.81 1018.85 1018.89 1018.73 1018.69 1018.69 1018.69 1018.73 1018.73 1018.81 1018.85 1018.77 1018.65 1018.61 1018.45 1018.01 1017.45 1017.33 1017.13 1017.09 1016.73 1015.61 1015.25 1015.01 1014.61 1013.97 1013.73 1013.53 1013.33 1013.17 1012.97 1012.89 1012.89 1012.89 1012.81 1012.77 1012.77 1012.85 1013.01 1013.13 1013.25 1013.37 1013.49 1013.69 1013.89 1014.05 1014.25 1014.45 1014.61
1015.85 1015.85 1015.85 1015.89 1015.89 1015.93 1016.01 1015.97 1016.13 1016.37 1016.53 1016.57 1016.53 1016.45 1016.49 1016.57 1016.73 1016.81 1016.89 1017.13 1017.41 1017.73 1018.05 1018.33 1018.53 1018.53 1018.57 1018.57 1018.45 1018.33 1018.29 1018.45 1018.57 1018.61 1018.73 1018.65 1018.73 1018.81 1018.81 1018.41 1018.05 1017.69 1017.65 1017.81 1017.53 1017.01 1015.57 1015.25 1015.17 1014.89 1014.21 1013.81 1013.57 1013.37 1013.17 1012.97 1012.81 1012.77 1012.81 1012.73 1012.69 1012.65 1012.73 1012.89 1013.09 1013.21 1013.33 1013.49 1013.61 1013.81 1014.05 1014.29 1014.49 1014.61
1015.45 1015.49 1015.45 1015.33 1015.33 1015.37 1015.53 1015.53 1015.61 1015.89 1016.13 1016.33 1016.37 1016.29 1016.21 1016.21 1016.29 1016.45 1016.57 1016.61 1016.77 1016.97 1017.29 1017.65 1017.85 1018.05 1018.17 1018.21 1018.21 1018.17 1018.13 1018.13 1018.17 1018.29 1018.33 1018.37 1018.45 1018.45 1018.41 1018.37 1018.21 1017.93 1017.57 1017.49 1017.65 1017.33 1015.57 1015.17 1015.13 1014.77 1014.25 1013.81 1013.57 1013.33 1013.17 1012.97 1012.85 1012.73 1012.65 1012.65 1012.61 1012.61 1012.65 1012.81 1013.01 1013.25 1013.37 1013.49 1013.61 1013.77 1014.01 1014.21 1014.45 1014.61
1015.01 1015.05 1015.01 1014.89 1014.69 1014.61 1014.73 1014.89 1014.93 1015.21 1015.61 1015.89 1016.01 1016.01 1016.01 1016.05 1016.09 1016.09 1016.05 1016.21 1016.29 1016.45 1016.61 1016.89 1017.17 1017.37 1017.53 1017.57 1017.73 1017.81 1017.93 1017.97 1017.97 1018.09 1018.09 1018.09 1018.17 1018.29 1018.41 1018.41 1017.93 1017.73 1016.97 1016.85 1017.09 1016.85 1015.81 1015.17 1015.17 1014.61 1014.21 1014.01 1013.81 1013.37 1013.21 1013.01 1012.81 1012.73 1012.69 1012.65 1012.61 1012.57 1012.61 1012.69 1012.89 1013.13 1013.37 1013.49 1013.61 1013.73 1013.89 1014.05 1014.29 1014.49
1014.37 1014.41 1014.37 1014.25 1014.21 1014.13 1014.05 1014.13 1014.25 1014.37 1014.89 1015.37 1015.45 1015.53 1015.65 1015.73 1015.85 1015.81 1015.89 1015.81 1015.77 1015.77 1015.89 1016.05 1016.29 1016.53 1016.73 1016.77 1016.77 1016.85 1016.97 1017.21 1017.49 1017.77 1018.01 1018.09 1018.01 1018.13 1018.17 1017.89 1017.57 1017.25 1016.65 1016.17 1016.21 1016.29 1015.61 1014.93 1014.97 1014.65 1014.33 1014.21 1013.97 1013.61 1013.29 1013.05 1012.85 1012.69 1012.61 1012.57 1012.57 1012.57 1012.57 1012.61 1012.73 1012.93 1013.17 1013.33 1013.45 1013.57 1013.69 1013.85 1014.01 1014.25
1013.49 1013.69 1013.73 1013.69 1013.61 1013.57 1013.53 1013.53 1013.45 1013.57 1014.01 1014.65 1014.89 1015.09 1015.29 1015.49 1015.57 1015.57 1015.61 1015.77 1015.69 1015.49 1015.41 1015.45 1015.57 1015.73 1015.89 1016.01 1016.13 1016.17 1016.25 1016.33 1016.57 1017.29 1017.65 1017.57 1017.73 1017.85 1017.73 1017.77 1017.37 1016.89 1016.33 1015.97 1015.77 1015.77 1015.41 1014.93 1014.73 1014.77 1014.33 1014.01 1013.65 1013.49 1013.25 1013.05 1012.85 1012.61 1012.45 1012.37 1012.45 1012.53 1012.61 1012.65 1012.69 1012.77 1012.93 1013.21 1013.37 1013.45 1013.53 1013.65 1013.85 1014.05
1012.65 1012.85 1013.01 1013.05 1013.05 1013.01 1012.93 1012.93 1012.81 1012.81 1013.05 1013.85 1014.25 1014.53 1014.89 1015.17 1015.17 1015.05 1015.33 1015.49 1015.65 1015.73 1015.73 1015.49 1015.37 1015.37 1015.33 1015.37 1015.49 1015.65 1015.77 1015.81 1015.89 1016.29 1016.61 1016.97 1017.37 1017.49 1017.33 1017.17 1017.01 1016.77 1016.21 1015.61 1015.49 1015.89 1015.49 1015.17 1014.93 1014.81 1014.65 1014.49 1013.53 1013.13 1013.01 1012.85 1012.73 1012.57 1012.41 1012.33 1012.33 1012.41 1012.53 1012.61 1012.65 1012.73 1012.81 1012.97 1013.21 1013.37 1013.45 1013.49 1013.65 1013.89
1011.77 1011.93 1012.09 1012.29 1012.33 1012.25 1012.25 1012.21 1012.17 1012.17 1012.29 1013.05 1013.65 1014.05 1014.45 1014.65 1014.61 1014.65 1015.09 1015.17 1015.29 1015.45 1015.49 1015.33 1015.29 1015.29 1015.29 1015.41 1015.45 1015.49 1015.53 1015.57 1015.61 1015.69 1015.97 1016.29 1016.69 1016.97 1017.01 1017.01 1017.01 1016.97 1016.45 1015.61 1015.61 1016.01 1015.53 1015.13 1015.01 1014.77 1014.89 1014.73 1014.25 1013.41 1012.97 1012.85 1012.65 1012.41 1012.25 1012.29 1012.37 1012.41 1012.45 1012.53 1012.61 1012.69 1012.77 1012.89 1012.97 1013.17 1013.29 1013.33 1013.45 1013.73
1011.21 1011.37 1011.49 1011.45 1011.53 1011.53 1011.57 1011.65 1011.61 1011.57 1011.61 1012.25 1013.01 1013.45 1013.77 1013.85 1013.73 1014.29 1014.73 1014.73 1014.93 1015.21 1015.25 1015.25 1015.29 1015.29 1015.29 1015.33 1015.33 1015.37 1015.37 1015.41 1015.41 1015.45 1015.53 1015.73 1015.97 1016.25 1016.53 1016.73 1016.77 1016.53 1016.05 1015.73 1015.69 1015.81 1015.77 1015.13 1015.09 1014.81 1014.85 1014.69 1014.37 1013.85 1013.33 1012.85 1012.45 1012.25 1012.09 1012.09 1012.21 1012.33 1012.45 1012.53 1012.61 1012.77 1012.85 1012.89 1012.93 1012.93 1012.97 1013.09 1013.17 1013.45
1010.77 1010.93 1011.13 1011.21 1011.17 1011.17 1011.13 1011.13 1011.13 1011.09 1011.09 1011.53 1012.37 1012.77 1012.81 1013.01 1013.37 1013.65 1013.89 1014.33 1014.57 1014.73 1014.81 1014.89 1014.97 1015.01 1015.09 1015.17 1015.21 1015.17 1015.13 1015.13 1015.13 1015.17 1015.21 1015.29 1015.41 1015.57 1015.69 1015.97 1016.21 1016.21 1015.61 1015.45 1015.37 1015.37 1015.37 1015.29 1015.17 1015.13 1015.13 1014.89 1014.33 1013.97 1013.41 1012.93 1012.49 1012.25 1012.13 1012.09 1012.01 1012.09 1012.25 1012.41 1012.61 1012.77 1012.89 1013.05 1013.05 1013.01 1012.93 1012.85 1012.97 1013.21
1010.41 1010.53 1010.61 1010.73 1010.85 1010.81 1010.73 1010.69 1010.65 1010.65 1010.65 1010.93 1011.61 1011.85 1012.05 1012.33 1012.61 1012.93 1013.37 1013.69 1013.93 1014.09 1014.17 1014.29 1014.41 1014.45 1014.57 1014.73 1014.81 1014.85 1014.85 1014.81 1014.81 1014.85 1014.85 1014.93 1015.01 1015.09 1015.21 1015.37 1015.49 1015.41 1015.13 1015.37 1015.33 1015.29 1015.37 1015.37 1015.09 1015.33 1015.33 1014.93 1014.65 1014.01 1013.57 1013.21 1012.73 1012.37 1012.21 1012.21 1012.09 1012.09 1012.21 1012.33 1012.53 1012.69 1012.81 1012.93 1013.05 1013.05 1013.01 1012.93 1012.89 1013.01
1010.21 1010.29 1010.29 1010.21 1010.25 1010.33 1010.29 1010.25 1010.21 1010.21 1010.21 1010.57 1010.93 1011.17 1011.33 1011.69 1012.01 1012.41 1012.61 1012.81 1013.01 1013.25 1013.45 1013.65 1013.73 1013.85 1013.89 1014.05 1014.21 1014.25 1014.25 1014.29 1014.37 1014.41 1014.49 1014.57 1014.65 1014.73 1014.85 1014.93 1015.01 1015.01 1014.97 1015.09 1015.25 1015.25 1015.33 1015.41 1015.21 1015.05 1015.13 1015.01 1014.89 1014.61 1014.09 1013.17 1013.05 1012.93 1012.81 1012.41 1012.29 1012.25 1012.29 1012.45 1012.45 1012.57 1012.69 1012.81 1012.97 1013.01 1013.09 1013.17 1013.17 1013.17
1009.81 1010.01 1010.13 1010.05 1009.81 1009.73 1009.73 1009.69 1009.73 1009.81 1009.81 1009.93 1010.25 1010.57 1010.93 1011.21 1011.57 1011.77 1012.05 1012.29 1012.49 1012.69 1012.81 1013.01 1013.13 1013.21 1013.25 1013.29 1013.33 1013.45 1013.61 1013.69 1013.89 1014.09 1014.21 1014.33 1014.41 1014.49 1014.57 1014.65 1014.69 1014.69 1014.69 1014.73 1014.93 1015.01 1015.13 1015.21 1015.13 1015.01 1015.01 1014.97 1014.97 1014.65 1014.29 1014.05 1013.41 1013.17 1012.97 1012.85 1012.81 1012.61 1012.65 1012.73 1012.61 1012.65 1012.73 1012.81 1012.93 1013.05 1013.17 1013.25 1013.37 1013.41
1009.45 1009.65 1009.69 1009.57 1009.49 1009.41 1009.25 1009.21 1009.25 1009.37 1009.49 1009.65 1009.89 1010.13 1010.49 1010.93 1011.29 1011.53 1011.81 1012.05 1012.25 1012.37 1012.45 1012.53 1012.65 1012.73 1012.77 1012.85 1012.81 1012.89 1013.05 1013.33 1013.49 1013.65 1013.85 1014.09 1014.25 1014.37 1014.57 1014.69 1014.61 1014.57 1014.53 1014.53 1014.61 1014.69 1014.81 1014.93 1014.93 1014.93 1014.89 1014.85 1014.89 1014.81 1014.45 1014.05 1013.69 1013.41 1013.17 1013.17 1013.01 1012.85 1012.93 1012.93 1012.89 1012.85 1012.89 1013.01 1013.01 1013.09 1013.21 1013.29 1013.49 1013.53
1009.01 1009.33 1009.49 1009.41 1009.25 1009.13 1009.05 1008.93 1008.89 1009.01 1009.21 1009.37 1009.61 1009.89 1010.25 1010.69 1010.93 1011.25 1011.49 1011.77 1012.01 1012.17 1012.29 1012.37 1012.45 1012.45 1012.45 1012.41 1012.45 1012.57 1012.73 1012.89 1012.97 1013.13 1013.37 1013.61 1013.69 1013.89 1014.13 1014.29 1014.25 1014.25 1014.13 1014.17 1014.25 1014.33 1014.45 1014.57 1014.69 1014.73 1014.85 1014.73 1014.65 1014.61 1014.37 1014.13 1014.01 1013.77 1013.53 1013.33 1013.21 1013.41 1013.21 1013.17 1013.21 1013.17 1013.13 1013.09 1013.09 1013.21 1013.37 1013.53 1013.73 1013.89
1008.65 1008.89 1009.13 1009.33 1009.25 1009.09 1008.97 1008.81 1008.73 1008.73 1008.81 1009.05 1009.29 1009.69 1010.21 1010.53 1010.69 1010.97 1011.25 1011.57 1011.81 1012.01 1012.09 1012.25 1012.41 1012.53 1012.53 1012.61 1012.49 1012.37 1012.41 1012.49 1012.53 1012.65 1012.81 1012.97 1013.25 1013.37 1013.61 1013.85 1013.81 1013.77 1013.69 1013.77 1013.85 1013.89 1014.01 1014.25 1014.45 1014.53 1014.57 1014.61 1014.61 1014.41 1014.21 1014.01 1013.97 1013.85 1013.69 1013.45 1013.37 1013.33 1013.25 1013.37 1013.41 1013.37 1013.29 1013.25 1013.41 1013.57 1013.65 1013.73 1013.93 1014.09
1008.81 1008.77 1008.73 1008.89 1009.01 1008.97 1008.89 1008.73 1008.53 1008.49 1008.61 1008.81 1009.13 1009.65 1010.09 1010.45 1010.61 1010.85 1011.17 1011.53 1011.73 1011.89 1012.05 1012.29 1012.53 1012.69 1012.69 1012.61 1012.49 1012.41 1012.37 1012.29 1012.29 1012.33 1012.45 1012.53 1012.69 1012.77 1013.05 1013.25 1013.33 1013.37 1013.49 1013.53 1013.61 1013.73 1013.89 1014.05 1014.21 1014.29 1014.37 1014.37 1014.45 1014.41 1014.33 1014.21 1013.93 1013.81 1013.73 1013.61 1013.53 1013.57 1013.57 1013.53 1013.45 1013.49 1013.41 1013.49 1013.73 1013.73 1013.89 1014.01 1014.13 1014.25
1008.65 1008.69 1008.61 1008.33 1008.45 1008.53 1008.61 1008.53 1008.29 1008.21 1008.37 1008.65 1009.05 1009.45 1009.81 1010.25 1010.53 1010.81 1011.09 1011.37 1011.65 1011.85 1012.05 1012.29 1012.53 1012.73 1012.73 1012.73 1012.57 1012.41 1012.29 1012.29 1012.21 1012.21 1012.29 1012.41 1012.41 1012.57 1012.77 1012.89 1012.93 1012.93 1013.05 1013.17 1013.21 1013.45 1013.69 1013.89 1014.09 1014.21 1014.29 1014.29 1014.17 1014.05 1014.01 1014.13 1014.17 1013.97 1013.73 1013.57 1013.61 1013.77 1013.61 1013.65 1013.61 1013.57 1013.65 1013.77 1013.81 1013.97 1014.17 1014.29 1014.33 1014.45
1008.29 1008.29 1008.49 1008.21 1007.93 1008.05 1008.13 1008.17 1008.01 1008.05 1008.17 1008.41 1008.73 1009.21 1009.65 1010.13 1010.33 1010.73 1011.05 1011.33 1011.57 1011.81 1011.97 1012.13 1012.29 1012.37 1012.45 1012.49 1012.49 1012.45 1012.33 1012.25 1012.17 1012.17 1012.17 1012.17 1012.25 1012.37 1012.45 1012.65 1012.69 1012.69 1012.77 1012.89 1012.93 1013.05 1013.41 1013.65 1013.89 1014.13 1014.25 1014.25 1014.17 1013.97 1013.89 1013.81 1014.01 1014.13 1014.01 1013.81 1013.69 1013.69 1013.69 1013.73 1013.77 1013.81 1013.81 1013.93 1013.97 1014.29 1014.41 1014.53 1014.57 1014.65
1007.97 1007.93 1008.01 1008.05 1007.69 1007.53 1007.73 1007.77 1007.77 1007.81 1007.97 1008.21 1008.57 1009.01 1009.53 1009.93 1010.17 1010.53 1010.93 1011.13 1011.37 1011.61 1011.77 1011.93 1012.09 1012.25 1012.41 1012.49 1012.53 1012.49 1012.45 1012.37 1012.33 1012.25 1012.17 1012.17 1012.17 1012.17 1012.21 1012.37 1012.41 1012.41 1012.49 1012.53 1012.65 1012.69 1013.01 1013.37 1013.57 1013.89 1014.09 1014.09 1014.21 1014.13 1013.93 1013.73 1013.85 1014.01 1014.17 1014.05 1013.77 1013.65 1013.65 1013.77 1013.89 1013.89 1013.97 1014.09 1014.17 1014.33 1014.37 1014.73 1014.81 1014.85
1007.85 1007.77 1007.73 1007.73 1007.57 1007.21 1007.17 1007.37 1007.49 1007.65 1007.77 1008.13 1008.45 1008.77 1009.21 1009.65 1010.01 1010.33 1010.69 1010.93 1011.25 1011.45 1011.65 1011.89 1012.13 1012.29 1012.41 1012.53 1012.57 1012.53 1012.49 1012.45 1012.45 1012.37 1012.29 1012.25 1012.21 1012.17 1012.17 1012.09 1012.09 1012.13 1012.21 1012.25 1012.29 1012.41 1012.61 1013.01 1013.21 1013.49 1013.77 1014.01 1014.13 1014.21 1014.01 1013.85 1013.77 1013.81 1013.97 1014.05 1013.89 1013.73 1013.77 1013.89 1014.01 1014.09 1014.05 1014.09 1014.33 1014.45 1014.37 1014.41 1014.77 1014.97
1007.73 1007.57 1007.49 1007.41 1007.37 1007.17 1007.01 1006.97 1007.25 1007.53 1007.73 1007.97 1008.25 1008.65 1009.09 1009.53 1010.05 1010.53 1010.85 1011.01 1011.29 1011.53 1011.73 1011.97 1012.21 1012.37 1012.45 1012.49 1012.57 1012.57 1012.53 1012.45 1012.41 1012.41 1012.33 1012.21 1012.21 1012.17 1012.13 1012.09 1011.93 1011.89 1011.93 1011.97 1012.09 1012.17 1012.25 1012.57 1012.89 1013.17 1013.41 1013.69 1013.89 1014.05 1014.25 1013.85 1013.85 1013.57 1013.49 1013.77 1013.89 1013.77 1013.81 1014.01 1014.13 1014.17 1014.21 1014.29 1014.37 1014.49 1014.49 1014.49 1014.69 1014.89
1007.73 1007.61 1007.41 1007.21 1007.05 1006.97 1006.97 1006.81 1006.77 1007.29 1007.61 1007.85 1008.13 1008.53 1009.05 1009.69 1010.37 1010.89 1011.05 1011.21 1011.49 1011.65 1011.89 1012.09 1012.29 1012.41 1012.49 1012.53 1012.57 1012.57 1012.57 1012.53 1012.53 1012.53 1012.45 1012.33 1012.17 1012.09 1011.93 1011.89 1011.85 1011.69 1011.65 1011.73 1011.85 1011.97 1012.09 1012.37 1012.49 1012.77 1012.93 1013.21 1013.37 1013.37 1013.45 1013.65 1013.41 1013.05 1013.13 1013.17 1013.45 1013.73 1013.77 1013.81 1014.05 1014.29 1014.29 1014.45 1014.69 1014.89 1015.09 1015.09 1015.01 1015.05
1007.41 1007.61 1007.45 1007.25 1007.09 1006.85 1006.81 1006.89 1006.81 1006.97 1007.45 1007.81 1008.13 1008.57 1009.13 1009.85 1010.41 1010.89 1011.21 1011.45 1011.61 1011.77 1011.93 1012.09 1012.25 1012.41 1012.49 1012.57 1012.61 1012.65 1012.65 1012.65 1012.65 1012.61 1012.53 1012.41 1012.21 1012.01 1011.89 1011.73 1011.69 1011.57 1011.57 1011.57 1011.69 1011.77 1011.89 1012.01 1012.17 1012.33 1012.41 1012.25 1012.25 1012.37 1012.53 1012.61 1012.69 1012.81 1012.93 1013.01 1013.17 1013.45 1013.69 1013.81 1013.93 1014.21 1014.45 1014.45 1014.69 1014.81 1015.25 1015.25 1015.37 1015.61
1007.01 1007.25 1007.33 1007.21 1007.13 1006.93 1006.81 1006.89 1006.97 1007.21 1007.57 1007.93 1008.33 1008.77 1009.21 1009.81 1010.33 1010.77 1011.05 1011.29 1011.53 1011.69 1011.85 1011.97 1012.09 1012.21 1012.37 1012.53 1012.65 1012.73 1012.81 1012.81 1012.81 1012.81 1012.77 1012.73 1012.57 1012.33 1012.01 1011.73 1011.57 1011.49 1011.49 1011.41 1011.37 1011.45 1011.57 1011.53 1011.57 1011.57 1011.73 1011.97 1012.13 1012.33 1012.61 1012.85 1012.85 1013.01 1013.01 1013.05 1013.09 1013.33 1013.65 1013.81 1013.85 1013.85 1013.89 1014.25 1014.57 1014.81 1015.09 1015.17 1015.33 1015.61
1006.41 1006.77 1006.93 1007.05 1007.01 1006.89 1006.85 1006.93 1007.21 1007.57 1007.97 1008.29 1008.61 1009.05 1009.53 1009.97 1010.33 1010.61 1010.93 1011.17 1011.45 1011.65 1011.85 1011.97 1012.09 1012.25 1012.37 1012.53 1012.65 1012.73 1012.89 1012.93 1012.89 1012.77 1012.65 1012.61 1012.57 1012.37 1012.13 1011.97 1011.77 1011.37 1011.29 1011.17 1011.09 1011.13 1011.13 1011.21 1011.37 1011.57 1011.77 1011.97 1012.13 1012.37 1012.57 1012.49 1012.61 1012.97 1013.09 1013.21 1013.25 1013.25 1013.45 1013.73 1013.89 1014.01 1013.81 1013.85 1014.33 1014.77 1014.97 1015.05 1014.97 1015.29
1005.97 1006.29 1006.57 1006.69 1006.85 1006.85 1007.05 1007.33 1007.57 1007.85 1008.29 1008.65 1009.05 1009.41 1009.81 1010.17 1010.45 1010.73 1011.13 1011.33 1011.53 1011.73 1011.89 1012.05 1012.21 1012.33 1012.49 1012.61 1012.73 1012.81 1012.93 1013.05 1013.01 1012.93 1012.77 1012.61 1012.41 1012.25 1011.97 1011.61 1011.41 1011.25 1011.05 1010.97 1010.93 1011.01 1011.09 1011.13 1011.25 1011.41 1011.57 1011.73 1011.81 1011.93 1012.21 1012.21 1012.21 1012.65 1013.09 1013.37 1013.49 1013.57 1013.65 1013.77 1013.89 1014.05 1014.09 1013.93 1014.05 1014.13 1014.21 1014.33 1014.53 1015.05
1006.61 1006.81 1007.17 1007.21 1007.17 1007.37 1007.61 1007.81 1008.05 1008.33 1008.57 1008.97 1009.37 1009.73 1010.01 1010.33 1010.69 1011.01 1011.25 1011.49 1011.73 1011.89 1012.09 1012.17 1012.25 1012.37 1012.53 1012.65 1012.77 1012.85 1012.89 1012.97 1012.97 1012.97 1012.85 1012.69 1012.41 1012.21 1012.01 1011.77 1011.41 1011.01 1010.81 1010.77 1010.81 1010.89 1010.97 1011.09 1011.13 1011.21 1011.41 1011.49 1011.49 1011.73 1011.89 1011.97 1012.25 1012.49 1012.81 1013.29 1013.57 1013.65 1013.73 1013.93 1014.05 1014.17 1014.29 1014.25 1014.29 1014.33 1014.33 1014.33 1014.33 1014.33
1007.69 1007.73 1007.85 1008.05 1008.13 1008.17 1008.33 1008.45 1008.61 1008.85 1009.09 1009.37 1009.65 1009.97 1010.29 1010.61 1010.93 1011.13 1011.33 1011.57 1011.85 1012.01 1012.13 1012.21 1012.33 1012.49 1012.61 1012.73 1012.81 1012.89 1012.93 1012.93 1012.89 1012.85 1012.73 1012.57 1012.41 1012.25 1012.09 1011.89 1011.65 1011.33 1011.05 1010.81 1010.85 1010.85 1010.93 1010.93 1010.89 1010.97 1011.01 1011.13 1011.25 1011.41 1011.49 1011.61 1011.97 1012.57 1012.81 1013.17 1013.49 1013.65 1013.77 1013.89 1014.01 1014.17 1014.41 1014.65 1014.65 1014.49 1014.45 1014.49 1014.53 1014.53
Thickness
5230 5229 5230 5229 5231 5232 5233 5234 5236 5237 5237 5237 5236 5236 5233 5230 5229 5229 5231 5234 5236 5238 5240 5242 5244 5244 5245 5245 5245 5246 5249 5252 5256 5262 5270 5278 5287 5294 5301 5306 5312 5322 5332 5343 5353 5360 5370 5380 5389 5400 5411 5421 5429 5435 5442 5449 5459 5472 5482 5490 5501 5512 5521 5531 5541 5549 5557 5565 5570 5575 5580 5586 5589 5589
5221 5222 5222 5222 5223 5224 5225 5227 5228 5229 5230 5230 5229 5229 5227 5225 5224 5223 5225 5229 5231 5231 5233 5235 5237 5238 5238 5240 5241 5242 5244 5248 5251 5257 5263 5271 5280 5290 5297 5302 5307 5316 5324 5333 5342 5351 5361 5372 5381 5392 5403 5411 5419 5426 5433 5441 5449 5461 5471 5480 5490 5500 5508 5516 5525 5535 5545 5552 5557 5562 5568 5573 5577 5578
5213 5214 5214 5215 5216 5217 5218 5219 5221 5222 5223 5223 5223 5223 5222 5221 5220 5219 5220 5224 5227 5226 5227 5228 5229 5231 5232 5234 5236 5238 5240 5242 5246 5251 5257 5265 5275 5284 5291 5297 5302 5310 5317 5325 5334 5343 5354 5364 5373 5383 5393 5403 5411 5418 5424 5432 5441 5451 5460 5468 5476 5486 5496 5503 5510 5521 5532 5539 5544 5549 5554 5559 5564 5566
5207 5207 5208 5209 5209 5210 5211 5212 5214 5216 5217 5217 5217 5217 5217 5216 5215 5215 5214 5217 5220 5220 5221 5222 5222 5223 5226 5228 5231 5233 5236 5239 5242 5246 5251 5259 5269 5277 5284 5292 5297 5304 5311 5318 5327 5336 5347 5358 5366 5374 5384 5394 5402 5409 5416 5423 5432 5442 5449 5455 5463 5474 5485 5492 5498 5508 5518 5525 5530 5535 5540 5546 5551 5554
5202 5201 5201 5202 5203 5203 5204 5206 5207 5209 5210 5212 5212 5212 5212 5211 5210 5210 5210 5211 5213 5214 5214 5215 5216 5216 5219 5222 5225 5228 5232 5235 5238 5241 5246 5254 5262 5271 5279 5287 5293 5299 5305 5312 5321 5331 5342 5352 5360 5368 5376 5386 5394 5401 5409 5416 5425 5432 5438 5444 5452 5461 5471 5481 5488 5494 5504 5511 5516 5522 5528 5534 5538 5541
5197 5196 5195 5196 5196 5196 5198 5199 5200 5201 5203 5204 5206 5207 5207 5206 5204 5205 5204 5205 5206 5208 5208 5209 5210 5211 5213 5216 5219 5222 5226 5231 5234 5237 5242 5248 5256 5264 5274 5282 5289 5295 5301 5307 5315 5326 5337 5346 5354 5361 5369 5377 5386 5394 5401 5409 5416 5423 5428 5435 5441 5448 5458 5469 5477 5481 5487 5495 5503 5509 5514 5521 5524 5527
5192 5191 5190 5189 5189 5190 5192 5193 5194 5195 5196 5197 5199 5201 5202 5201 5200 5199 5200 5200 5200 5202 5203 5203 5205 5206 5207 5210 5213 5217 5221 5224 5229 5233 5237 5243 5250 5258 5267 5276 5284 5290 5295 5302 5309 5319 5330 5339 5347 5355 5361 5368 5378 5386 5393 5399 5407 5414 5419 5425 5431 5437 5445 5455 5464 5469 5473 5481 5489 5495 5501 5507 5511 5514
5189 5186 5185 5184 5183 5184 5186 5187 5188 5189 5190 5191 5192 5194 5195 5195 5195 5195 5195 5195 5196 5196 5198 5198 5199 5201 5202 5205 5207 5211 5215 5218 5222 5227 5231 5237 5243 5251 5261 5270 5278 5286 5291 5298 5304 5312 5322 5331 5340 5348 5354 5360 5368 5377 5385 5390 5397 5406 5412 5417 5422 5427 5434 5444 5452 5458 5463 5468 5474 5481 5487 5493 5497 5502
5185 5183 5181 5179 5178 5179 5181 5182 5183 5184 5185 5186 5187 5188 5189 5190 5190 5190 5190 5190 5191 5192 5193 5193 5194 5195 5197 5199 5202 5205 5208 5212 5216 5221 5225 5231 5237 5245 5255 5265 5273 5281 5289 5295 5301 5309 5316 5323 5332 5339 5345 5352 5358 5366 5374 5382 5389 5397 5403 5409 5413 5417 5424 5433 5441 5447 5452 5455 5461 5468 5474 5478 5482 5487
5182 5180 5178 5176 5174 5174 5176 5178 5179 5180 5181 5182 5183 5184 5184 5185 5185 5185 5185 5185 5186 5187 5188 5188 5188 5190 5192 5194 5196 5200 5203 5207 5210 5215 5220 5226 5231 5239 5249 5259 5267 5277 5285 5292 5299 5305 5311 5317 5323 5329 5335 5342 5348 5355 5363 5372 5381 5388 5394 5399 5404 5409 5414 5422 5430 5436 5442 5446 5450 5456 5462 5465 5469 5473
5179 5178 5175 5174 5172 5171 5172 5173 5175 5176 5177 5178 5179 5180 5180 5180 5180 5180 5180 5180 5181 5181 5183 5183 5184 5185 5187 5189 5192 5195 5199 5202 5205 5209 5214 5220 5226 5233 5241 5251 5260 5269 5278 5285 5291 5298 5305 5311 5317 5322 5328 5333 5339 5345 5352 5362 5371 5379 5384 5388 5393 5399 5405 5412 5420 5426 5432 5438 5442 5446 5451 5454 5458 5462
5176 5174 5172 5171 5170 5169 5169 5169 5171 5172 5174 5174 5175 5176 5176 5176 5176 5176 5175 5176 5176 5177 5178 5179 5179 5181 5182 5185 5187 5190 5194 5197 5200 5203 5207 5212 5219 5227 5235 5243 5252 5260 5268 5276 5282 5289 5297 5305 5311 5318 5323 5328 5333 5339 5345 5353 5362 5369 5376 5380 5385 5390 5396 5402 5409 5416 5422 5428 5434 5437 5441 5444 5448 5453
5172 5171 5170 5168 5167 5166 5166 5166 5167 5169 5170 5171 5171 5172 5173 5173 5172 5172 5171 5171 5172 5172 5173 5174 5176 5176 5178 5181 5183 5186 5188 5191 5194 5197 5200 5204 5211 5218 5226 5234 5241 5249 5257 5265 5273 5280 5289 5298 5306 5313 5320 5325 5330 5335 5340 5346 5354 5362 5368 5375 5380 5385 5391 5395 5400 5407 5413 5419 5424 5428 5432 5435 5439 5443
5168 5167 5167 5165 5164 5163 5163 5163 5165 5166 5167 5168 5169 5169 5170 5170 5169 5169 5168 5169 5168 5169 5170 5171 5172 5173 5174 5177 5180 5182 5185 5187 5189 5191 5194 5197 5202 5207 5213 5221 5230 5239 5246 5254 5263 5271 5279 5288 5297 5306 5313 5320 5326 5331 5336 5342 5348 5355 5362 5369 5375 5381 5387 5393 5396 5399 5404 5409 5415 5420 5424 5427 5430 5433
5163 5163 5163 5162 5161 5160 5160 5160 5162 5163 5165 5166 5167 5168 5168 5168 5168 5167 5167 5167 5167 5167 5168 5170 5170 5171 5172 5174 5177 5179 5181 5183 5184 5185 5187 5190 5193 5196 5200 5207 5219 5229 5236 5243 5251 5261 5271 5280 5288 5297 5306 5313 5320 5326 5331 5337 5344 5351 5358 5364 5370 5376 5382 5389 5394 5396 5398 5401 5406 5412 5416 5419 5422 5425
5158 5158 5159 5159 5158 5158 5158 5157 5158 5159 5162 5163 5164 5165 5166 5167 5167 5167 5166 5166 5166 5166 5167 5168 5169 5170 5170 5172 5173 5176 5177 5178 5179 5181 5183 5185 5187 5190 5192 5197 5208 5219 5226 5233 5240 5250 5262 5272 5279 5289 5298 5306 5314 5320 5326 5332 5338 5345 5351 5357 5364 5371 5376 5382 5388 5392 5395 5397 5400 5404 5408 5411 5414 5417
5154 5154 5155 5155 5155 5154 5154 5154 5154 5155 5157 5159 5161 5163 5164 5165 5166 5167 5167 5167 5166 5166 5166 5167 5168 5168 5169 5169 5171 5173 5174 5175 5176 5177 5178 5180 5182 5185 5186 5190 5199 5208 5215 5221 5227 5236 5250 5263 5271 5280 5289 5297 5305 5312 5319 5325 5330 5336 5342 5348 5356 5363 5368 5374 5379 5384 5389 5393 5396 5399 5401 5403 5406 5409
5150 5150 5151 5151 5151 5150 5151 5151 5151 5152 5153 5155 5157 5160 5162 5163 5164 5165 5167 5167 5167 5167 5166 5166 5167 5167 5167 5168 5169 5172 5173 5173 5174 5174 5175 5176 5177 5179 5181 5184 5191 5198 5204 5210 5214 5222 5239 5253 5261 5269 5278 5286 5295 5303 5310 5317 5323 5328 5334 5340 5347 5354 5360 5366 5371 5376 5381 5385 5389 5393 5395 5397 5399 5402
5145 5146 5146 5148 5148 5148 5149 5149 5149 5149 5150 5152 5154 5156 5158 5160 5161 5163 5165 5166 5167 5167 5166 5166 5167 5167 5167 5168 5168 5170 5171 5171 5172 5173 5173 5174 5175 5176 5178 5179 5184 5191 5198 5203 5204 5211 5226 5240 5248 5256 5266 5276 5286 5294 5302 5309 5315 5320 5326 5332 5339 5346 5353 5359 5363 5367 5371 5375 5379 5383 5387 5390 5392 5395
5140 5141 5143 5144 5146 5146 5147 5148 5148 5148 5148 5149 5150 5152 5155 5156 5158 5160 5162 5164 5165 5167 5166 5167 5168 5168 5168 5169 5169 5170 5169 5169 5170 5171 5171 5172 5173 5173 5174 5176 5180 5186 5193 5197 5199 5204 5215 5226 5235 5245 5256 5265 5274 5283 5292 5299 5306 5312 5318 5324 5331 5337 5344 5349 5354 5357 5361 5365 5369 5373 5378 5383 5386 5389
5138 5138 5140 5141 5142 5144 5145 5146 5147 5147 5147 5147 5148 5150 5151 5153 5155 5157 5160 5162 5163 5166 5166 5167 5168 5169 5169 5170 5171 5171 5171 5170 5170 5169 5168 5169 5170 5170 5171 5174 5178 5183 5188 5193 5196 5199 5206 5216 5224 5233 5244 5254 5264 5273 5281 5289 5297 5303 5310 5316 5322 5328 5334 5339 5345 5349 5353 5357 5361 5365 5370 5375 5379 5384
5137 5136 5137 5139 5140 5142 5143 5144 5146 5147 5147 5146 5146 5147 5148 5150 5152 5154 5156 5158 5160 5162 5164 5167 5169 5170 5171 5172 5173 5172 5173 5173 5171 5169 5168 5169 5168 5168 5170 5172 5176 5180 5185 5190 5192 5193 5198 5207 5214 5221 5232 5244 5255 5264 5271 5278 5287 5294 5301 5307 5313 5318 5324 5330 5336 5341 5345 5350 5354 5358 5363 5367 5373 5377
5136 5135 5135 5137 5138 5139 5140 5142 5145 5147 5147 5146 5145 5146 5146 5147 5149 5152 5154 5155 5156 5157 5160 5163 5166 5168 5170 5171 5172 5172 5172 5173 5173 5171 5170 5170 5168 5167 5169 5171 5173 5175 5181 5187 5188 5186 5190 5198 5205 5212 5220 5231 5242 5254 5261 5268 5277 5285 5293 5299 5304 5310 5315 5320 5326 5332 5338 5343 5347 5351 5356 5361 5366 5371
5134 5134 5135 5136 5137 5138 5139 5141 5143 5146 5147 5146 5143 5143 5144 5145 5148 5150 5151 5153 5154 5154 5155 5159 5162 5164 5166 5168 5169 5170 5171 5172 5172 5172 5172 5171 5169 5168 5168 5169 5170 5171 5177 5183 5182 5180 5184 5190 5196 5203 5209 5216 5227 5239 5250 5258 5268 5277 5286 5292 5298 5302 5307 5312 5318 5324 5329 5334 5339 5344 5349 5355 5360 5364
5131 5131 5132 5134 5135 5136 5137 5139 5141 5145 5146 5145 5142 5142 5143 5145 5148 5149 5150 5151 5152 5151 5152 5154 5157 5160 5162 5164 5166 5168 5169 5169 5171 5171 5172 5171 5171 5170 5169 5168 5168 5170 5174 5177 5176 5175 5178 5183 5187 5192 5198 5204 5213 5225 5238 5250 5262 5271 5279 5285 5290 5294 5299 5304 5309 5315 5320 5325 5331 5336 5342 5348 5353 5357
5127 5127 5127 5129 5131 5132 5134 5137 5139 5142 5145 5144 5142 5141 5143 5145 5148 5149 5150 5150 5150 5150 5150 5152 5155 5157 5159 5161 5163 5164 5166 5167 5168 5169 5171 5172 5172 5171 5171 5170 5168 5170 5174 5174 5173 5172 5173 5175 5178 5181 5185 5192 5202 5214 5227 5239 5252 5262 5270 5275 5280 5285 5290 5295 5300 5305 5310 5315 5321 5327 5334 5340 5345 5349
5121 5122 5123 5125 5126 5128 5131 5134 5137 5139 5142 5143 5141 5142 5144 5146 5147 5150 5151 5150 5149 5149 5150 5151 5154 5156 5157 5159 5160 5163 5165 5166 5167 5169 5170 5171 5171 5172 5172 5171 5170 5172 5173 5172 5171 5170 5168 5169 5170 5172 5174 5181 5190 5202 5213 5225 5236 5247 5255 5262 5269 5274 5280 5285 5290 5295 5300 5305 5311 5317 5323 5330 5336 5340
5115 5116 5118 5121 5123 5126 5128 5131 5134 5136 5139 5141 5141 5142 5143 5145 5147 5150 5151 5151 5150 5150 5151 5152 5154 5156 5158 5159 5160 5162 5164 5166 5167 5168 5168 5170 5170 5171 5171 5172 5171 5172 5172 5171 5169 5168 5166 5165 5165 5166 5168 5172 5179 5187 5198 5209 5219 5228 5238 5248 5257 5263 5268 5274 5279 5285 5290 5295 5300 5305 5311 5318 5325 5329
5109 5110 5112 5116 5119 5123 5125 5128 5130 5133 5137 5140 5140 5141 5142 5144 5147 5150 5151 5150 5150 5150 5150 5152 5154 5156 5157 5160 5161 5163 5164 5165 5165 5166 5167 5167 5168 5168 5169 5170 5170 5171 5171 5170 5169 5167 5165 5163 5162 5162 5163 5165 5169 5175 5183 5192 5202 5212 5222 5232 5242 5250 5255 5261 5267 5273 5279 5285 5289 5294 5299 5305 5311 5316
5103 5104 5107 5110 5115 5118 5122 5125 5128 5130 5134 5137 5138 5139 5141 5143 5146 5148 5148 5147 5147 5148 5149 5151 5153 5155 5157 5159 5161 5163 5164 5164 5164 5165 5165 5165 5166 5166 5166 5167 5168 5169 5170 5169 5168 5167 5166 5164 5162 5160 5160 5161 5163 5166 5172 5179 5188 5197 5205 5215 5226 5235 5241 5248 5254 5260 5266 5272 5277 5282 5287 5292 5297 5303
5099 5099 5101 5105 5110 5114 5118 5121 5124 5128 5131 5134 5136 5137 5139 5141 5144 5145 5145 5146 5145 5146 5147 5149 5151 5153 5155 5157 5160 5161 5162 5163 5164 5165 5165 5165 5165 5165 5165 5165 5166 5167 5169 5169 5168 5167 5166 5164 5163 5161 5159 5159 5160 5162 5167 5172 5178 5183 5191 5201 5211 5217 5224 5231 5237 5244 5251 5258 5264 5270 5276 5281 5284 5289
5093 5094 5096 5099 5104 5109 5113 5116 5121 5125 5129 5132 5134 5135 5136 5138 5141 5143 5143 5143 5143 5143 5145 5146 5147 5149 5151 5154 5156 5159 5161 5162 5163 5164 5165 5165 5165 5165 5165 5164 5165 5166 5167 5168 5167 5167 5166 5165 5164 5162 5161 5160 5159 5160 5163 5167 5171 5175 5181 5188 5195 5200 5207 5215 5222 5230 5238 5245 5250 5256 5262 5267 5271 5276
5084 5087 5092 5096 5100 5104 5108 5112 5117 5123 5127 5130 5131 5132 5133 5134 5137 5140 5141 5140 5140 5141 5142 5143 5143 5145 5147 5149 5152 5155 5158 5160 5161 5163 5164 5164 5165 5165 5164 5164 5164 5165 5166 5166 5166 5165 5165 5164 5163 5162 5161 5160 5160 5160 5161 5163 5166 5170 5173 5179 5184 5188 5194 5201 5209 5217 5225 5230 5235 5241 5247 5252 5258 5263
5079 5083 5088 5094 5098 5101 5104 5108 5114 5120 5124 5127 5129 5130 5131 5132 5135 5136 5137 5137 5138 5138 5139 5139 5140 5141 5143 5146 5149 5151 5154 5157 5159 5160 5162 5163 5164 5164 5164 5163 5163 5164 5164 5164 5165 5164 5163 5162 5161 5160 5159 5160 5160 5161 5162 5161 5162 5165 5168 5172 5176 5179 5183 5189 5197 5204 5209 5214 5220 5226 5231 5237 5243 5248
5077 5081 5085 5091 5096 5100 5102 5105 5111 5117 5121 5125 5127 5128 5128 5129 5132 5133 5133 5134 5135 5135 5136 5137 5139 5140 5141 5143 5145 5148 5150 5153 5155 5157 5159 5160 5161 5162 5162 5162 5162 5162 5163 5162 5163 5163 5161 5160 5159 5158 5157 5158 5159 5160 5161 5162 5161 5162 5164 5167 5170 5172 5176 5181 5186 5191 5194 5199 5205 5211 5216 5221 5226 5231
5076 5080 5083 5088 5094 5099 5101 5103 5108 5114 5118 5121 5124 5124 5125 5127 5129 5130 5131 5131 5132 5133 5134 5135 5136 5138 5139 5141 5142 5144 5147 5149 5151 5153 5155 5157 5159 5160 5161 5161 5161 5161 5161 5161 5161 5162 5161 5159 5158 5156 5155 5156 5156 5157 5158 5159 5160 5160 5160 5162 5165 5167 5170 5174 5176 5180 5183 5187 5193 5197 5201 5205 5210 5216
5073 5077 5081 5085 5090 5096 5100 5102 5106 5111 5115 5118 5120 5121 5122 5124 5126 5126 5127 5128 5129 5131 5132 5132 5133 5134 5136 5137 5139 5141 5143 5145 5147 5149 5151 5153 5155 5156 5158 5159 5159 5160 5160 5160 5159 5160 5159 5158 5156 5155 5154 5154 5153 5153 5154 5155 5157 5157 5157 5158 5160 5163 5165 5167 5168 5170 5173 5177 5182 5185 5190 5194 5197 5202
5070 5074 5079 5083 5087 5092 5096 5101 5105 5108 5111 5114 5117 5118 5120 5121 5121 5120 5122 5124 5125 5127 5128 5129 5130 5130 5132 5134 5136 5137 5140 5142 5143 5145 5147 5149 5151 5153 5154 5156 5157 5159 5159 5159 5158 5158 5157 5156 5154 5153 5152 5152 5151 5150 5148 5149 5152 5154 5155 5155 5156 5158 5160 5162 5162 5163 5166 5168 5171 5174 5179 5184 5187 5190
5066 5070 5075 5079 5084 5088 5093 5098 5103 5106 5108 5110 5114 5116 5116 5116 5115 5115 5117 5119 5120 5122 5123 5124 5125 5127 5128 5130 5132 5134 5136 5137 5139 5141 5143 5145 5147 5149 5152 5153 5154 5156 5158 5157 5157 5156 5156 5155 5153 5151 5150 5150 5151 5150 5148 5148 5150 5152 5153 5153 5153 5154 5156 5157 5157 5158 5159 5161 5162 5163 5167 5172 5176 5179
5063 5066 5071 5075 5080 5085 5089 5094 5099 5103 5104 5107 5110 5112 5112 5111 5110 5111 5112 5114 5116 5118 5119 5120 5122 5123 5125 5127 5128 5130 5131 5133 5135 5137 5138 5140 5143 5146 5148 5150 5152 5153 5154 5155 5155 5154 5154 5153 5152 5150 5149 5150 5151 5151 5149 5149 5149 5148 5148 5150 5150 5149 5151 5153 5153 5153 5154 5155 5156 5156 5158 5161 5164 5167
5061 5064 5067 5070 5076 5082 5086 5090 5094 5097 5099 5103 5105 5106 5106 5106 5107 5108 5109 5111 5112 5114 5116 5117 5119 5120 5122 5123 5124 5125 5127 5128 5130 5132 5133 5135 5137 5140 5143 5146 5148 5149 5151 5152 5153 5153 5153 5152 5152 5151 5149 5147 5147 5146 5145 5144 5144 5143 5142 5143 5144 5144 5145 5147 5148 5150 5151 5151 5151 5152 5153 5154 5157 5158
5062 5063 5066 5068 5073 5078 5083 5086 5089 5091 5094 5096 5098 5099 5100 5102 5104 5105 5106 5107 5109 5110 5112 5113 5115 5117 5118 5119 5120 5121 5123 5124 5125 5128 5130 5131 5134 5136 5139 5141 5144 5146 5148 5150 5151 5151 5151 5150 5149 5149 5146 5144 5142 5141 5140 5140 5140 5138 5135 5136 5138 5139 5140 5142 5143 5144 5147 5149 5149 5149 5150 5152 5154 5154
5062 5062 5064 5067 5071 5075 5078 5081 5084 5086 5088 5090 5091 5092 5095 5097 5099 5100 5101 5102 5104 5106 5107 5108 5110 5112 5113 5114 5115 5117 5118 5120 5121 5123 5126 5128 5130 5132 5135 5138 5141 5144 5146 5147 5148 5148 5147 5146 5146 5145 5143 5142 5141 5139 5137 5137 5136 5134 5131 5130 5131 5133 5135 5137 5138 5140 5143 5145 5146 5147 5149 5151 5153 5153
5054 5056 5058 5061 5066 5069 5072 5075 5077 5079 5081 5083 5085 5088 5090 5092 5093 5095 5096 5097 5099 5100 5102 5104 5106 5107 5109 5110 5112 5113 5114 5116 5118 5119 5121 5124 5126 5129 5131 5134 5137 5140 5142 5144 5144 5144 5144 5144 5144 5143 5142 5141 5140 5137 5135 5134 5133 5131 5128 5127 5126 5128 5131 5133 5135 5136 5138 5139 5141 5143 5146 5148 5151 5151
5044 5048 5051 5054 5058 5061 5064 5067 5070 5072 5075 5078 5080 5083 5085 5086 5088 5090 5091 5093 5094 5096 5098 5100 5101 5103 5104 5105 5107 5108 5110 5112 5114 5115 5117 5120 5122 5125 5127 5130 5131 5135 5138 5140 5141 5141 5141 5142 5142 5142 5142 5140 5139 5137 5135 5134 5131 5128 5127 5125 5125 5126 5129 5130 5132 5133 5133 5133 5136 5139 5141 5143 5145 5147